This demonstration page uses our WeatherBlox Daily Observations layout. Learn more.

Left ArrowRight Arrow

Hourly Observations for May 13, 2022

Temp ( °F °C ) Dew Point ( °F °C ) Humidity (%) Winds ( mph kmh ) Pressure ( in mb ) Visibility ( mi km ) Precip ( " mm )
12:56 am 00:56 Mostly Cloudy 65 18.2 57 13.7 75 75 NE 3 6 29.94 1014 10 16 0.03 0.76
1:56 am 01:56 Mostly Cloudy 64 17.8 57 13.7 77 77 ESE 6 9 29.91 1013 10 16 0.00 0.00
2:56 am 02:56 Mostly Cloudy 64 17.7 58 14.2 80 80 ESE 9 15 29.89 1012 10 16 0.00 0.00
3:56 am 03:56 Cloudy with Light Showers 64 17.5 56 13.4 77 77 ENE 3 6 29.88 1012 10 16 0.00 0.00
4:56 am 04:56 Cloudy 62 16.7 56 13.6 82 82 WNW 3 6 29.91 1013 10 16 0.00 0.00
5:56 am 05:56 Partly Cloudy 60 15.6 56 13.6 88 88 W 6 9 29.90 1013 10 16 0.00 0.00
6:56 am 06:56 Mostly Cloudy 61 16.2 56 13.5 84 84 SW 3 6 29.97 1015 10 16 0.00 0.00
7:56 am 07:56 Mostly Cloudy 62 16.7 57 13.8 83 83 WSW 6 9 29.98 1015 10 16 0.00 0.00
8:56 am 08:56 Mostly Cloudy 62 16.7 55 12.8 78 78 Calm 30.02 1017 10 16 0.00 0.00
9:56 am 09:56 Mostly Cloudy 65 18.6 56 13.4 72 72 WNW 5 7 30.03 1017 10 16 0.00 0.00
10:56 am 10:56 Sunny 71 21.6 47 8.5 43 43 WNW 10 17 29.99 1016 10 16 0.00 0.00
11:56 am 11:56 Sunny 73 23 47 8.3 39 39 WNW 10 17 30.01 1016 10 16 0.00 0.00
12:56 pm 12:56 Mostly Sunny 76 24.5 42 5.3 29 29 WNW 13 20 29.99 1016 10 16 0.00 0.00
1:56 pm 13:56 Sunny 78 25.4 41 5 27 27 W 13 20 29.98 1015 10 16 0.00 0.00
2:56 pm 14:56 Sunny 79 25.9 41 4.9 26 26 WNW 8 13 29.96 1014 10 16 0.00 0.00
3:56 pm 15:56 Sunny 81 27.4 42 5.6 25 25 W 7 11 29.94 1014 10 16 0.00 0.00
4:56 pm 16:56 Sunny 82 27.8 36 2 19 19 W 10 17 29.93 1014 9 14 0.00 0.00
5:56 pm 17:56 Sunny 82 27.5 37 2.5 20 20 WNW 8 13 29.92 1013 10 16 0.00 0.00
6:56 pm 18:56 Sunny 80 26.6 39 3.8 23 23 NW 5 7 29.92 1013 10 16 0.00 0.00
7:56 pm 19:56 Sunny 77 25.2 40 4.3 26 26 WNW 3 6 29.93 1013 9 14 0.00 0.00
8:56 pm 20:56 undefined 73 22.7 42 5.6 33 33 Calm 29.94 1014 10 16 0.00 0.00
9:56 pm 21:56 Clear 68 19.8 43 6.2 41 41 Calm 29.97 1015 10 16 0.00 0.00
10:56 pm 22:56 Clear 66 19 43 6.1 43 43 Calm 29.98 1015 10 16 0.00 0.00
11:56 pm 23:56 Clear 64 17.7 46 8 53 53 Calm 29.98 1015 10 16 0.00 0.00

Powered by AerisWeather